AirNav   Air Wisconsin Up To $57,000 Bonus
 
 1126 users online  

5NC3 Reed Mine Airport
Locust, North Carolina, USA

GOING TO LOCUST?


FAA INFORMATION EFFECTIVE 03 NOVEMBER 2022

Location

FAA Identifier: 5NC3
Lat/Long: 35-17-57.7900N 080-27-28.2000W
35-17.963167N 080-27.470000W
35.2993861,-80.4578333
(estimated)
Elevation: 581 ft. / 177 m (estimated)
From city: 3 miles NNW of LOCUST, NC
Time zone: UTC -5 (UTC -4 during Daylight Saving Time)
Zip code: 28097

Airport Operations

Airport use: Private use. Permission required prior to landing
Activation date: 01/2018
Control tower: no
ARTCC: ATLANTA CENTER
FSS: RALEIGH FLIGHT SERVICE STATION
Attendance: 
Segmented circle: no

Airport Communications

WX AWOS-3 at JQF (13 nm NW): 133.675 (704-785-2145)
WX AWOS-3 at VUJ (17 nm NE): 128.175 (704-986-2097)
WX ASOS at EQY (19 nm SW): 135.775 (704-283-5185)

Nearby radio navigation aids

VOR radial/distance  VOR name  Freq  Var
CLTr080/25.1CHARLOTTE VOR/DME115.0005W
CTFr350/40.0CHESTERFIELD VOR/DME114.5503W

 
NDB name  Hdg/Dist  Freq  Var  ID
STONIA085/34.926006WGHJ --. .... .---
LANCASTER037/39.840007WLKR .-.. -.- .-.

Airport Services

Runway Information

Runway 3/21

Dimensions: 2000 x 75 ft. / 610 x 23 m
Surface: turf, in fair condition
RUNWAY 3  RUNWAY 21
Traffic pattern: leftleft

Airport Ownership and Management from official FAA records

Ownership: Privately-owned
Owner: CHRISTOPHER LOGAN
9659 WIDESPREAD AVE NW
CONCORD, NC 28027
Phone 704-773-1676
Manager: CHRISTOPHER LOGAN
9659 WIDESPREAD AVE NW
CONCORD, NC 28027
Phone 704-773-1676

Additional Remarks

FOR CD CTC ATLANTA ARTCC AT 770-210-7692.

Instrument Procedures

There are no published instrument procedures at 5NC3.

Some nearby airports with instrument procedures:

KJQF - Concord-Padgett Regional Airport (13 nm NW)
KVUJ - Stanly County Airport (17 nm NE)
KEQY - Charlotte-Monroe Executive Airport (19 nm SW)
KRUQ - Mid-Carolina Regional Airport (21 nm N)
KCLT - Charlotte/Douglas International Airport (25 nm W)
 
Loc | Ops | Rwys | IFR | FBO | Links
Com | Nav | Svcs | Stats | Notes
Aerial photo
No photo
 
Airport distance calculator
Flying to Reed Mine Airport? Find the distance to fly.

From to 5NC3

Sunrise and sunset
Times for 29-Nov-2022
 Local
(UTC-5)
 Zulu
(UTC)
Morning civil twilight06:4411:44
Sunrise07:1112:11
Sunset17:0922:09
Evening civil twilight17:3722:37

Current date and time
Zulu (UTC)  30-Nov-2022 03:38:38
Local (UTC-5)  29-Nov-2022 22:38:38
 
METAR
KJQF 
14nm W 
300250Z 00000KT 10SM BKN065 11/08 A3019
KVUJ 
17nm NE 
300315Z AUTO 00000KT 10SM CLR 07/06 A3021 RMK AO2 LTG DSNT W T00700064
KEQY 
19nm SW 
300253Z AUTO 00000KT 10SM SCT065 09/07 A3015 RMK AO2 SLP221 T00940067 51002
KRUQ 
21nm N 
300315Z AUTO 00000KT 10SM BKN065 08/06 A3017 RMK AO2 T00750057
KCLT 
25nm W 
300152Z 17004KT 10SM FEW065 BKN250 13/08 A3016 RMK SLP210 T01330078
KAFP 
25nm SE 
300315Z AUTO 00000KT 10SM CLR 07/06 A3016 RMK AO2 T00680059
TAF
KCLT 
25nm W 
300147Z 3002/0106 14003KT P6SM FEW045 SCT250 TEMPO 3005/3009 4SM -SHRA BR OVC025 FM300900 15005KT 6SM SHRA BR OVC007 WS020/20045KT FM301300 17009G17KT 4SM -SHRA BR OVC007 FM301500 20010G20KT 3SM BR VCSH OVC004 FM301800 26010G18KT P6SM BKN024 FM302100 31010G19KT P6SM SCT120
NOTAMs
Click for the latest NOTAMs
NOTAMs are issued by the DoD/FAA and will open in a separate window not controlled by AirNav.

 

 
 

Would you like to see your business listed on this page?

 If your business provides an interesting product or service to pilots, flight crews, aircraft, or users of the Reed Mine Airport, you should consider listing it here.  To start the listing process, click on the button below
 
Add a business
 

Other Pages about Reed Mine Airport

Update a link
 
Copyright © AirNav, LLC. All rights reserved. Privacy Policy  Contact